Location: Kosice
(0.0000°N, 21.2500°E)
Time: 04:43:54
(UTC+01:00)

CZ-4 R/B - Pass Details

Date: 24 January 2021
Orbit: 531 x 599 km, 97.7° (Epoch: 04 March)

Event Time Altitude Azimuth Distance (km) Brightness Sun altitude
Rises 18:38:43 0° 169° (S) 2,839 5.1 -12.2°
Reaches altitude 10° 18:40:53 10° 170° (S) 1,931 4.2 -12.7°
Maximum altitude 18:45:06 87° 257° (WSW) 595 1.5 -13.7°
Drops below altitude 10° 18:49:13 10° 348° (NNW) 1,895 4.0 -14.6°
Sets 18:51:21 0° 348° (NNW) 2,781 4.8 -15.1°
